Wind_Speed
9 8 8 8 8 7 6 5 3 1 2 1 2 5 8 10 11 12 14 16 17 18 19 20 23 27 29 30 32 33 31 28 28 31 31 34 36 37 41 39 42 43 41 45 46 47 46
9 7 6 5 4 3 2 1 2 2 1 3 5 6 8 12 15 16 16 19 19 18 19 24 25 29 32 33 37 37 30 28 30 34 35 36 37 40 39 40 41 44 45 47 50 53 57
7 6 4 2 2 1 1 1 4 1 4 7 9 10 14 17 20 22 22 21 23 23 25 26 28 29 33 36 39 33 30 29 34 36 36 37 40 43 42 41 44 47 50 53 56 55 60
8 6 4 3 3 2 1 3 4 5 7 12 15 18 21 19 21 25 29 29 23 24 26 29 31 33 37 37 40 35 31 32 37 40 38 40 44 46 44 49 48 49 56 58 58 62 65
14 8 6 7 6 5 5 4 5 9 14 16 18 22 23 23 26 29 30 30 28 28 29 34 35 36 40 42 40 35 33 35 42 43 42 45 49 50 50 53 52 55 59 60 64 66 67
10 13 11 8 9 8 9 9 13 16 19 24 26 29 30 30 29 32 32 32 31 31 34 36 36 39 42 40 38 38 33 40 44 45 50 50 52 52 54 55 58 59 63 65 69 69 72
11 10 9 10 11 10 12 15 19 22 24 28 31 31 30 30 33 34 32 30 31 32 33 37 40 38 37 38 40 36 39 44 47 50 49 53 55 55 58 59 65 66 70 72 75 76 79
14 13 14 15 15 17 20 24 27 28 29 30 31 31 33 33 31 31 33 35 36 37 38 39 43 38 39 40 39 40 42 45 48 49 53 56 55 58 61 65 69 71 74 74 80 81 85
20 22 23 23 24 27 27 28 31 32 35 35 37 34 36 35 36 37 38 39 41 41 42 44 45 43 43 40 40 42 44 46 50 53 56 55 59 62 66 68 70 73 75 79 83 86 89
22 21 27 29 31 33 34 36 36 36 37 39 38 39 40 41 40 42 43 43 45 44 46 47 48 48 47 43 45 45 46 50 52 55 56 60 63 63 64 70 74 76 79 82 87 89 93
35 38 30 28 29 28 36 41 43 45 45 45 44 43 45 46 46 47 50 48 48 49 50 50 47 44 43 45 48 49 51 54 57 61 60 62 64 67 70 73 76 80 84 87 91 94 98
45 40 36 36 36 39 39 33 31 39 46 48 49 51 52 52 53 53 51 52 53 50 46 45 45 45 46 48 51 51 56 58 57 60 63 67 70 71 74 76 79 84 89 91 94 99 103
51 51 49 50 43 43 47 47 47 45 41 41 41 45 47 50 48 49 48 48 47 50 50 50 48 49 51 53 55 57 60 59 63 65 69 71 74 76 79 82 86 87 92 97 99 105 111
66 64 57 60 53 60 54 56 53 50 47 47 50 51 52 53 52 50 50 52 55 56 55 53 53 51 53 55 58 60 63 66 69 73 75 76 76 79 82 86 89 92 97 104 110 111 113
69 68 68 68 70 68 69 68 63 55 57 52 50 53 53 53 57 59 61 58 56 55 56 54 53 53 57 62 62 64 67 70 73 76 77 79 77 83 89 90 94 98 101 107 112 113 116
71 74 75 78 78 80 82 82 71 71 60 59 60 60 61 59 61 60 60 63 61 62 61 61 60 60 60 64 66 69 71 73 75 77 78 81 84 86 91 93 96 100 105 110 116 121 123
85 83 82 85 88 87 84 84 81 77 79 75 72 78 75 69 67 65 64 65 68 67 65 64 67 66 70 71 72 75 77 78 80 80 84 87 89 91 94 97 101 103 107 113 117 122 127
89 92 94 94 94 97 96 91 93 103 94 91 84 84 83 81 77 76 71 75 74 73 73 72 74 77 76 77 78 81 82 85 85 85 88 93 95 97 97 101 103 106 110 116 121 126 130
99 98 98 89 88 92 95 95 98 90 91 86 90 88 89 88 85 84 78 77 80 84 83 80 80 82 81 85 84 84 86 87 89 91 94 97 97 100 103 106 106 110 115 119 124 128 134
98 96 92 88 88 89 88 87 91 94 96 96 97 94 90 89 89 86 85 86 88 88 90 90 90 87 83 90 92 88 89 91 93 94 97 100 104 106 109 112 113 114 118 124 125 131 136
88 92 94 90 88 87 93 97 101 103 105 102 104 101 101 98 96 96 95 93 97 100 98 98 97 95 95 99 95 96 96 95 99 100 101 103 104 106 108 113 115 116 122 128 128 136 141
54 58 69 81 92 98 95 97 101 102 106 104 104 106 103 102 104 103 106 109 107 107 106 102 100 99 100 103 102 101 99 101 100 101 101 104 107 109 109 114 117 119 123 128 133 138 143
65 66 61 61 60 56 60 65 66 68 77 82 88 95 100 101 105 107 109 104 104 109 108 107 105 105 103 105 108 105 102 101 98 100 105 106 110 112 112 116 118 120 125 129 134 138 142
73 73 70 67 70 68 65 64 64 68 72 73 70 73 77 83 87 94 95 95 100 103 105 109 109 110 108 107 109 109 105 102 100 102 106 110 112 114 116 119 120 125 129 132 135 140 141
89 87 82 82 82 79 77 74 74 71 73 72 73 77 78 78 80 85 90 92 94 102 102 105 108 109 108 110 113 113 110 108 108 108 109 110 113 118 121 119 123 125 128 132 137 141 143
92 92 94 90 88 87 88 87 82 82 81 81 78 80 81 80 72 85 88 93 93 95 102 99 100 103 106 109 112 114 113 111 108 115 110 109 114 115 118 122 125 125 130 133 135 139 141
92 99 96 97 95 98 91 91 89 90 89 89 85 85 88 84 83 79 84 90 93 99 105 109 108 111 112 112 109 103 107 109 110 106 107 108 112 116 118 121 122 129 133 133 136 137 143
99 94 94 99 101 101 102 99 98 94 94 98 94 93 95 94 91 86 86 87 89 96 104 105 104 104 109 107 108 106 106 106 106 105 104 112 109 115 119 124 124 129 133 132 137 144 142
105 105 106 107 108 110 109 107 107 106 104 106 106 104 103 104 99 96 92 91 93 93 98 99 101 101 105 107 105 107 108 110 108 104 105 109 111 119 118 123 125 127 129 132 141 139 140
Wind_Direction
283 281 279 279 275 266 256 262 242 206 167 187 320 338 337 333 317 321 313 307 311 309 318 321 330 331 335 334 336 334 331 334 337 345 347 351 350 348 347 349 349 345 346 346 345 345 345
301 302 296 285 272 265 255 73 66 92 43 8 356 357 349 342 342 341 318 321 319 311 307 313 317 320 325 323 328 330 330 327 334 338 337 339 342 342 341 343 343 341 340 340 341 339 341
321 323 320 301 237 219 93 238 179 201 344 340 331 332 325 334 327 327 326 323 311 311 305 307 311 313 315 321 327 330 327 330 334 334 333 333 335 333 332 334 335 336 338 337 338 335 339
355 346 1 354 19 352 276 220 212 267 311 321 322 321 314 321 319 321 330 326 312 303 303 306 312 315 314 318 322 322 318 325 327 328 327 328 329 325 327 331 329 332 334 336 335 335 336
8 351 343 340 307 295 263 256 265 302 316 312 317 314 315 314 319 319 319 319 311 309 315 317 315 314 315 313 318 317 315 318 320 325 325 325 327 323 323 327 326 327 331 332 335 333 333
358 0 346 316 322 285 267 272 283 293 305 315 316 314 312 312 310 314 310 312 311 310 312 314 316 318 317 319 317 314 312 316 319 317 319 321 325 324 323 324 324 326 329 330 334 332 332
329 335 310 301 292 284 283 287 294 298 300 302 301 299 302 303 305 306 305 307 305 309 307 308 312 318 322 316 313 310 312 315 316 316 318 320 323 322 324 324 326 326 327 330 332 331 333
302 303 298 291 282 276 281 283 287 290 295 299 300 300 302 301 301 300 303 303 303 304 306 308 308 312 314 311 310 309 309 312 315 317 319 320 322 321 323 324 326 328 329 330 330 332 332
292 298 293 285 284 285 282 285 292 293 296 298 300 299 302 300 298 298 299 299 299 298 302 302 305 306 310 309 307 307 312 314 317 318 318 317 320 322 325 326 329 329 330 329 329 332 332
289 299 310 284 283 284 285 287 286 287 289 292 291 293 294 294 294 295 295 295 296 298 296 299 303 305 310 311 307 313 313 316 317 319 317 317 320 323 327 326 328 328 328 329 330 331 331
296 286 285 291 296 292 288 285 283 285 286 287 287 285 286 288 289 291 294 295 295 295 299 304 305 309 307 309 311 313 315 316 316 318 319 320 321 322 324 325 326 327 327 328 328 330 330
292 294 277 281 292 286 285 286 297 304 296 291 286 287 290 290 290 291 294 294 295 298 303 303 305 304 304 305 309 309 311 315 318 319 319 320 322 322 322 322 325 325 325 326 327 329 329
295 289 289 298 281 292 296 283 279 280 286 295 299 294 291 293 300 303 305 300 299 299 301 302 303 304 303 305 310 309 311 314 317 320 318 320 322 323 323 323 324 324 324 324 327 327 329
294 295 288 296 288 294 289 295 288 276 281 285 286 288 290 292 292 292 293 294 295 297 299 302 304 301 297 307 309 309 311 313 316 318 319 320 321 322 321 321 322 323 323 324 325 326 329
292 289 292 292 297 291 297 293 287 280 283 283 288 286 287 287 291 293 293 291 292 295 297 298 300 303 301 304 309 309 311 312 313 316 316 316 317 319 319 320 321 322 322 323 324 327 328
284 285 288 291 290 291 292 293 286 288 281 280 286 287 289 287 289 292 293 291 292 294 294 295 298 300 299 302 306 307 309 310 311 311 313 313 315 316 317 318 319 321 322 323 325 326 326
283 281 284 286 289 288 288 288 290 288 289 287 288 291 291 287 286 286 290 293 291 291 291 293 295 298 300 300 302 304 306 309 311 312 313 313 315 316 317 317 319 320 321 322 325 325 326
277 277 281 283 284 284 284 285 287 288 282 285 284 288 288 288 287 288 288 292 291 288 290 290 296 298 297 300 301 304 305 306 308 309 310 311 312 315 316 316 318 320 320 322 323 325 326
278 278 279 281 279 278 279 280 280 281 282 282 283 284 285 285 286 286 287 291 292 293 292 292 293 295 296 299 300 302 303 305 306 308 309 310 311 312 315 315 317 319 319 321 323 324 326
279 277 278 277 278 277 277 279 280 281 281 281 281 281 281 283 281 282 283 287 289 290 292 294 292 294 295 298 298 300 302 303 304 306 307 309 311 312 314 314 316 318 319 321 323 324 326
272 268 268 268 265 270 273 272 273 276 279 279 280 280 281 281 281 280 281 285 286 289 290 291 291 291 293 297 297 297 299 301 302 303 306 307 309 311 312 314 316 317 319 319 322 323 325
276 277 270 267 262 263 266 269 272 274 276 278 278 280 282 281 280 283 283 284 284 285 286 285 288 288 290 293 296 297 298 298 299 301 303 305 306 308 309 311 313 316 318 319 320 322 324
269 269 270 269 267 269 272 277 276 277 274 274 279 280 278 277 276 278 280 282 283 284 285 284 285 287 288 290 292 294 298 298 299 300 302 304 305 306 308 309 312 314 316 317 320 322 324
266 267 261 261 264 263 264 270 275 280 281 280 282 285 283 282 283 283 283 285 287 287 288 289 288 286 285 288 291 294 297 298 298 301 303 304 305 306 309 310 312 314 315 317 320 322 324
266 264 262 262 263 263 265 264 266 270 275 276 280 281 282 281 284 283 282 285 285 287 289 289 291 291 291 291 292 295 298 298 299 301 302 302 304 306 308 310 313 315 316 319 320 322 324
265 265 266 264 264 263 264 264 266 266 268 273 276 279 279 279 279 274 279 282 282 280 283 285 285 286 289 290 292 295 297 299 300 301 301 301 303 306 308 311 313 314 316 318 321 322 323
269 265 264 264 265 266 266 265 267 269 272 272 268 274 277 279 276 274 274 271 275 278 279 282 283 285 285 287 290 291 293 294 296 298 299 301 304 307 308 311 313 315 318 319 320 323 324
266 264 267 266 267 270 270 268 268 268 271 272 270 271 273 274 276 277 276 274 275 273 276 279 281 281 286 286 288 287 291 293 295 296 298 301 305 306 308 311 312 315 317 320 321 321 323
270 270 270 271 272 274 272 270 268 270 270 272 274 273 272 273 274 273 274 277 279 278 273 274 278 279 281 285 287 289 291 293 293 298 299 302 304 307 310 311 313 316 317 319 321 322 324
Height
10827 10826 10826 10826 10826 10826 10826 10826 10825 10825 10824 10824 10824 10824 10824 10823 10822 10820 10818 10816 10813 10810 10807 10803 10800 10796 10793 10789 10785 10780 10776 10772 10768 10764 10760 10756 10751 10747 10743 10739 10734 10729 10725 10721 10717 10712 10706
10826 10826 10825 10824 10824 10824 10825 10826 10826 10826 10825 10825 10824 10823 10822 10821 10819 10817 10816 10813 10810 10807 10804 10801 10797 10793 10790 10785 10780 10776 10772 10768 10764 10760 10755 10751 10747 10742 10739 10734 10729 10723 10717 10712 10706 10700 10695
10825 10825 10824 10824 10823 10823 10823 10823 10823 10824 10824 10824 10824 10822 10820 10818 10816 10814 10812 10810 10807 10803 10800 10796 10793 10789 10785 10781 10777 10772 10768 10764 10760 10756 10750 10746 10742 10737 10732 10727 10722 10717 10711 10704 10697 10688 10682
10825 10825 10825 10824 10823 10823 10822 10822 10821 10821 10822 10822 10820 10820 10817 10815 10813 10810 10807 10805 10802 10798 10794 10791 10787 10784 10780 10776 10771 10767 10763 10759 10754 10749 10744 10739 10735 10730 10725 10720 10715 10709 10702 10696 10687 10679 10668
10826 10824 10823 10823 10822 10822 10821 10820 10820 10820 10820 10819 10818 10815 10812 10810 10808 10805 10802 10799 10796 10793 10789 10785 10782 10779 10774 10769 10764 10760 10757 10753 10748 10742 10737 10731 10726 10721 10715 10710 10703 10697 10691 10685 10677 10665 10657
10824 10824 10823 10821 10820 10819 10819 10819 10819 10818 10817 10815 10813 10811 10808 10805 10803 10800 10796 10793 10789 10786 10783 10779 10776 10773 10767 10763 10759 10754 10750 10746 10741 10736 10729 10722 10716 10710 10704 10698 10691 10684 10676 10669 10662 10653 10643
10823 10822 10821 10820 10819 10817 10817 10816 10816 10815 10813 10811 10809 10807 10803 10800 10797 10793 10790 10787 10783 10781 10777 10773 10769 10764 10759 10755 10750 10746 10741 10737 10731 10725 10720 10712 10705 10698 10692 10685 10677 10670 10661 10652 10646 10636 10626
10822 10820 10819 10819 10818 10817 10815 10813 10811 10809 10808 10805 10802 10799 10796 10792 10789 10786 10782 10780 10777 10773 10769 10766 10761 10756 10751 10746 10741 10737 10732 10727 10721 10715 10709 10702 10695 10687 10680 10672 10663 10655 10647 10639 10629 10620 10609
10820 10819 10817 10815 10814 10813 10810 10809 10807 10804 10801 10798 10795 10791 10788 10785 10782 10778 10774 10771 10768 10765 10761 10758 10753 10749 10744 10738 10733 10728 10723 10717 10712 10706 10699 10691 10685 10676 10668 10658 10649 10640 10632 10622 10612 10602 10587
10815 10813 10812 10810 10809 10807 10805 10802 10799 10797 10794 10791 10788 10784 10781 10778 10775 10771 10767 10763 10759 10756 10751 10748 10743 10740 10735 10730 10724 10718 10713 10708 10701 10695 10688 10681 10672 10664 10656 10645 10635 10623 10614 10606 10595 10584 10573
10809 10808 10805 10805 10802 10801 10798 10796 10793 10790 10787 10784 10780 10776 10772 10769 10766 10763 10760 10755 10750 10746 10743 10739 10734 10730 10725 10720 10716 10708 10703 10698 10691 10683 10675 10668 10660 10651 10643 10632 10621 10608 10597 10590 10579 10567 10556
10799 10798 10797 10796 10794 10793 10790 10787 10784 10782 10779 10775 10771 10768 10764 10760 10757 10753 10750 10746 10741 10736 10733 10729 10724 10719 10714 10709 10703 10696 10689 10684 10679 10671 10663 10654 10645 10635 10626 10617 10606 10593 10578 10571 10562 10548 10538
10786 10784 10785 10784 10783 10782 10781 10778 10775 10772 10769 10766 10762 10758 10754 10750 10746 10743 10739 10736 10732 10726 10723 10720 10713 10708 10702 10696 10690 10683 10676 10670 10664 10659 10650 10642 10631 10620 10610 10600 10590 10577 10564 10549 10545 10532 10516
10773 10773 10770 10769 10769 10769 10767 10766 10765 10761 10758 10756 10753 10748 10744 10741 10736 10732 10727 10724 10720 10717 10712 10708 10704 10697 10689 10684 10679 10670 10663 10655 10647 10639 10633 10626 10619 10606 10596 10585 10573 10562 10546 10528 10512 10507 10495
10759 10756 10755 10754 10754 10752 10752 10753 10750 10748 10745 10741 10739 10736 10732 10727 10724 10721 10717 10711 10707 10703 10698 10694 10689 10685 10675 10669 10665 10658 10650 10642 10634 10625 10615 10608 10606 10593 10580 10568 10555 10544 10529 10512 10496 10486 10472
10742 10741 10738 10736 10735 10736 10733 10732 10735 10732 10728 10726 10723 10720 10718 10714 10710 10706 10704 10700 10694 10689 10686 10681 10675 10672 10663 10656 10651 10643 10636 10628 10620 10610 10600 10592 10585 10575 10564 10551 10540 10523 10506 10488 10476 10454 10443
10724 10723 10722 10720 10717 10716 10713 10714 10713 10712 10712 10709 10706 10702 10698 10697 10694 10690 10688 10685 10680 10675 10671 10667 10660 10657 10650 10643 10636 10629 10621 10614 10605 10595 10585 10573 10566 10557 10545 10533 10521 10505 10486 10471 10457 10439 10417
10706 10706 10705 10702 10698 10694 10694 10691 10689 10690 10692 10688 10687 10683 10677 10676 10676 10672 10670 10667 10665 10657 10654 10651 10645 10641 10633 10626 10624 10614 10603 10595 10587 10579 10569 10558 10550 10538 10528 10514 10503 10488 10468 10453 10438 10420 10402
10681 10683 10681 10677 10674 10671 10670 10670 10666 10666 10666 10665 10663 10664 10658 10656 10657 10652 10651 10649 10644 10638 10634 10634 10628 10623 10618 10610 10601 10598 10587 10580 10569 10559 10549 10542 10534 10521 10511 10497 10485 10470 10449 10434 10419 10399 10383
10647 10649 10648 10649 10648 10644 10646 10644 10638 10637 10640 10639 10637 10642 10642 10636 10635 10636 10632 10631 10623 10620 10617 10611 10608 10603 10601 10593 10583 10579 10571 10563 10553 10542 10531 10523 10515 10502 10486 10472 10463 10446 10426 10412 10397 10379 10362
10626 10626 10623 10625 10622 10623 10619 10616 10615 10615 10613 10611 10609 10614 10615 10618 10614 10610 10609 10612 10604 10597 10596 10591 10589 10582 10579 10573 10565 10558 10552 10543 10534 10523 10513 10504 10496 10487 10472 10456 10445 10428 10406 10390 10374 10356 10340
10605 10602 10600 10602 10604 10602 10598 10593 10592 10595 10591 10586 10583 10584 10585 10587 10588 10587 10584 10584 10580 10574 10572 10570 10563 10563 10558 10551 10544 10538 10533 10524 10515 10506 10495 10487 10475 10470 10459 10441 10428 10414 10390 10375 10357 10338 10321
10589 10587 10585 10583 10581 10579 10578 10576 10577 10574 10571 10566 10565 10563 10560 10565 10566 10564 10560 10556 10556 10548 10544 10540 10542 10539 10535 10530 10524 10519 10514 10504 10495 10486 10477 10468 10456 10447 10441 10427 10414 10400 10382 10362 10345 10322 10304
10569 10568 10565 10563 10562 10559 10558 10557 10558 10554 10550 10547 10548 10544 10541 10540 10541 10539 10538 10535 10528 10524 10520 10515 10514 10512 10511 10507 10500 10497 10492 10485 10476 10468 10457 10448 10437 10427 10419 10407 10397 10377 10363 10346 10328 10304 10284
10543 10543 10543 10541 10540 10538 10537 10538 10539 10536 10530 10529 10530 10526 10521 10520 10522 10522 10517 10516 10512 10503 10499 10495 10491 10488 10485 10483 10478 10475 10471 10464 10458 10452 10441 10430 10420 10406 10396 10390 10377 10360 10343 10327 10309 10288 10266
10516 10515 10514 10514 10514 10512 10513 10514 10515 10513 10509 10507 10511 10507 10504 10502 10510 10504 10498 10496 10493 10488 10480 10479 10473 10466 10464 10462 10458 10457 10446 10443 10437 10432 10422 10414 10404 10390 10376 10366 10354 10341 10325 10307 10290 10273 10250
10486 10485 10484 10484 10484 10485 10484 10486 10489 10487 10486 10482 10487 10487 10482 10482 10489 10483 10482 10478 10474 10470 10461 10456 10453 10447 10442 10443 10440 10437 10431 10424 10420 10412 10403 10395 10383 10371 10355 10346 10338 10317 10302 10285 10268 10250 10231
10455 10453 10452 10452 10452 10452 10454 10457 10459 10459 10459 10453 10462 10461 10456 10458 10461 10465 10461 10458 10457 10453 10444 10440 10433 10428 10421 10422 10420 10413 10413 10406 10400 10394 10384 10377 10365 10355 10341 10327 10318 10300 10283 10266 10247 10227 10207
10421 10419 10418 10417 10416 10416 10418 10422 10426 10427 10429 10426 10431 10429 10430 10427 10437 10438 10439 10438 10434 10432 10426 10423 10416 10411 10405 10399 10396 10392 10388 10385 10379 10375 10364 10359 10347 10336 10322 10308 10294 10278 10263 10245 10227 10207 10186